Terminal Aerodrome Forecast
Issued by NWS Blacksburg, VA

Current Version | Previous Version | Graphics & Text | Print | Product List | Glossary On
Versions: 1 2 3 4 5 6 7 8 9 10 11 12 13 14 15 16 17 18 19 20 21 22 23 24 25 26 27 28 29 30 31 32
000
FTUS41 KRNK 232025 AAA
TAFBLF
TAF AMD
KBLF 232025Z 2320/2418 15010G18KT P6SM SCT008 OVC050
     FM232300 15008KT 4SM -RA BR OVC004 WS019/20040KT
      TEMPO 2402/2406 2SM RA BR BKN006 OVC012
     FM241200 16010G20KT 4SM -RA BR OVC004 WS019/20050KT
      TEMPO 2412/2416 2SM RA BR OVC007=

USA.gov is the U.S. government's official web portal to all federal, state and local government web resources and services.